Weather History for MRLB - June, 2012

Change the Weather History Date:

Saturday, June 30, 2012

  Actual Average Record
Temperature  
Mean Temperature 80 °F -  
Max Temperature 90 °F 87 °F 94 °F (2014)
Min Temperature 71 °F 75 °F 71 °F (1999)
Cooling Degree Days 16    
Growing Degree Days 30 (Base 50)    
Moisture  
Dew Point 71 °F    
Average Humidity 66    
Maximum Humidity 89    
Minimum Humidity 42    
Precipitation  
Precipitation 0.00 in - - ()
Sea Level Pressure  
Sea Level Pressure 29.85 in    
Wind  
Wind Speed 6 mph ()    
Max Wind Speed 12 mph    
Max Gust Speed -    
Visibility 7.5 miles    
Events Rain , Thunderstorm    
Averages and records for this station are not official NWS values.
T = Trace of Precipitation, MM = Missing Value Source: Averaged Metar Reports

Daily Weather History Graph

Daily Weather History Graph

Search for Another Location

Airport or City:

Trip Planner

Search our weather history database for the weather conditions in past years. The results will help you decide how hot, cold, wet, or windy it might be!

Date:

Astronomy

Jun. 30, 2012 Rise Set
Actual Time 5:23 AM CST 6:08 PM CST
Civil Twilight 5:00 AM CST 6:31 PM CST
Nautical Twilight 4:33 AM CST 6:58 PM CST
Astronomical Twilight 4:06 AM CST 7:25 PM CST
Moon 3:10 PM CST (6/30) 2:06 AM CST (6/30)
Length of Visible Light 13h 30m
Length of Day
12h 44m
Waxing Gibbous, 87% of the Moon is Illuminated
Jun 30
Waxing Gibbous
Jul 3
Full
Jul 10
Last Quarter
Jul 18
New
Jul 26
First Quarter

Hourly Weather History & Observations

Time (CST) Temp. Heat Index Dew Point Humidity Pressure Visibility Wind Dir Wind Speed Gust Speed Precip Events Conditions
6:00 AM 73 °F - 70 °F 87% 29.83 in 12 mi South 6.9 mph - -   Overcast
6:00 AM 73.4 °F - 69.8 °F 88% 29.82 in 6.2 mi South 6.9 mph - N/A   Mostly Cloudy
7:00 AM 75.2 °F - 71.6 °F 89% 29.85 in 6.2 mi ENE 8.1 mph - N/A   Mostly Cloudy
8:00 AM 80.6 °F 85.4 °F 73.4 °F 79% 29.88 in 6.2 mi SE 3.5 mph - N/A   Mostly Cloudy
9:00 AM 83 °F - 71 °F 58% 29.89 in 12 mi East 9.2 mph - -   Scattered Clouds
9:00 AM 84.2 °F 88.4 °F 69.8 °F 62% 29.89 in 6.2 mi East 9.2 mph - N/A   Mostly Cloudy
10:00 AM 86.0 °F 91.8 °F 71.6 °F 62% 29.89 in 6.2 mi ESE 6.9 mph - N/A   Mostly Cloudy
11:00 AM 87.8 °F 92.6 °F 69.8 °F 55% 29.87 in 6.2 mi East 8.1 mph - N/A   Mostly Cloudy
12:00 PM 88 °F - 69 °F 44% 29.86 in 12 mi ENE 9.2 mph - -   Scattered Clouds
12:00 PM 87.8 °F 92.6 °F 69.8 °F 55% 29.85 in 6.2 mi ENE 9.2 mph - N/A   Mostly Cloudy
1:00 PM 87.8 °F 91.4 °F 68.0 °F 52% 29.83 in 6.2 mi East 10.4 mph - N/A   Mostly Cloudy
2:00 PM 89.6 °F 94.7 °F 69.8 °F 52% 29.82 in 6.2 mi East 11.5 mph - N/A   Mostly Cloudy
3:00 PM 89 °F - 69 °F 42% 29.83 in 12 mi ENE 6.9 mph - -   Overcast
3:00 PM 89.6 °F 94.7 °F 69.8 °F 52% 29.81 in 6.2 mi ENE 6.9 mph - N/A   Mostly Cloudy
4:00 PM 87.8 °F 92.6 °F 69.8 °F 55% 29.80 in 6.2 mi SE 2.3 mph - N/A   Scattered Clouds
4:25 PM 86.0 °F 91.8 °F 71.6 °F 62% 29.81 in 6.2 mi ENE 8.1 mph - N/A Thunderstorm Light Thunderstorm
5:00 PM 82.4 °F 88.2 °F 73.4 °F 74% 29.81 in 6.2 mi WNW 9.2 mph - N/A Rain , Thunderstorm Light Rain
6:00 PM 79 °F - 71 °F 70% 29.86 in 11 mi West 5.8 mph - -   Overcast
6:00 PM 78.8 °F - 71.6 °F 78% 29.85 in 6.2 mi West 5.8 mph - N/A   Scattered Clouds
7:01 PM 77.0 °F - 71.6 °F 83% 29.87 in 6.2 mi SW 5.8 mph - N/A Thunderstorm Mostly Cloudy
8:00 PM 75.2 °F - 71.6 °F 89% 29.89 in 6.2 mi South 5.8 mph - N/A Rain Light Rain